Stations météo

réclame
Mon MeteoGroup
Gotska sandoen, Suède (2589): Température de l'air & dewpoint: 09.11.2018 22:00:00 - 15.11.2018 22:00:00 (CET)Gotska sandoen, Suède (2589): Vitesse du vent & gusts: 09.11.2018 22:00:00 - 15.11.2018 22:00:00 (CET)Gotska sandoen, Suède (2589): Direction du vent: 09.11.2018 22:00:00 - 15.11.2018 22:00:00 (CET)Gotska sandoen, Suède (2589): reduced air pressure: 09.11.2018 22:00:00 - 15.11.2018 22:00:00 (CET)Gotska sandoen, Suède (2589): visibility: 09.11.2018 22:00:00 - 15.11.2018 22:00:00 (CET)Gotska sandoen, Suède (2589): Quantités de précipitations: 09.11.2018 22:00:00 - 15.11.2018 22:00:00 (CET)
Date & Time tt [°C] td [°C] ff [km/h] ff [knt] fx [km/h] fx [knt] dd ppp [hPa] vv [km] rr [mm]
15.11.2018 22:00:00 8,1 7,6 24 13 38 20 SW 1032,6 6 0,0
15.11.2018 21:00:00 8,1 7,5 21 12 38 20 SW 1032,2 6 0,0
15.11.2018 20:00:00 8,1 7,3 22 12 41 22 SW 1032,0 6 0,0
15.11.2018 19:00:00 8,1 7,2 21 12 41 22 SW 1031,7 7 0,0
15.11.2018 18:00:00 8,1 7,2 23 12 49 26 SW 1031,3 8 0,0
15.11.2018 17:00:00 7,9 7,1 21 11 49 26 SW 1031,0 8 0,0
15.11.2018 16:00:00 7,6 6,9 27 14 50 27 SW 1030,9 10 0,0
15.11.2018 15:00:00 6,8 6,4 23 12 50 27 SW 1030,7 7 0,0
15.11.2018 14:00:00 6,5 6,2 24 13 48 26 SW 1030,5 8 0,0
15.11.2018 13:00:00 7,1 6,7 23 12 40 21 SW 1030,2 9 0,0
15.11.2018 12:00:00 7,4 7,1 21 11 35 19 SW 1030,1 8 0,0
15.11.2018 11:00:00 7,1 7,0 18 10 35 19 SW 1029,8 2,2 0,0
15.11.2018 10:00:00 6,9 6,8 16 9 30 16 SW 1029,5 1,3 0,0
15.11.2018 09:00:00 7,3 7,0 16 9 29 15 SW 1028,8 10 0,0
15.11.2018 08:00:00 6,9 6,8 16 9 29 15 WSW 1028,8 8 0,0
15.11.2018 07:00:00 7,0 6,9 16 9 27 15 SW 1028,4 8 0,0
15.11.2018 06:00:00 7,1 6,8 16 9 25 14 SW 1027,9 9 0,0
15.11.2018 05:00:00 7,4 7,1 15 8 25 14 WSW 1027,9 15 0,0
15.11.2018 04:00:00 7,1 6,8 16 8 25 14 WSW 1027,6 11 0,0
15.11.2018 03:00:00 7,0 6,7 14 7 24 13 SW 1027,2 15 0,0
15.11.2018 02:00:00 6,8 6,4 14 8 22 12 SW 1027,0 29 0,0
15.11.2018 01:00:00 7,2 6,5 11 6 26 14 SW 1026,9 39 0,0
15.11.2018 00:00:00 7,7 6,8 15 8 26 14 WSW 1026,6 39 0,0
14.11.2018 23:00:00 7,7 6,9 15 8 24 13 WSW 1026,3 33 0,0
14.11.2018 22:00:00 7,6 6,5 12 6 24 13 SW 1025,8 48 0,0
14.11.2018 21:00:00 7,5 5,6 14 8 25 13 W 1025,7 50 0,0
14.11.2018 20:00:00 7,1 5,7 10 6 25 13 W 1025,5 50 0,0
14.11.2018 19:00:00 7,0 5,8 11 6 22 12 W 1025,2 50 0,0
14.11.2018 18:00:00 7,0 5,9 12 6 22 12 W 1024,7 50 0,0
14.11.2018 17:00:00 7,1 6,4 11 6 23 12 WNW 1024,3 50 0,0
14.11.2018 16:00:00 7,3 6,9 9 5 23 12 NW 1024,1 30 0,0
14.11.2018 15:00:00 7,3 7,0 11 6 22 12 NW 1023,6 27 0,0
14.11.2018 14:00:00 7,6 7,3 11 6 22 12 NW 1022,9 9 0,0
14.11.2018 13:00:00 7,7 7,4 11 6 22 12 NW 1022,3 10 0,0
14.11.2018 12:00:00 8,2 7,9 10 5 19 11 NW 1021,8 10 0,0
14.11.2018 11:00:00 8,3 8,2 9 5 18 10 WNW 1021,2 7 0,0
14.11.2018 10:00:00 7,8 7,7 7 4 17 9 WNW 1020,3 4,1 0,0
14.11.2018 09:00:00 7,6 7,5 8 4 17 9 W 1019,5 3,8 0,0
14.11.2018 08:00:00 7,5 7,4 8 4 18 10 WNW 1019,1 3,2 0,0
14.11.2018 07:00:00 7,6 7,5 9 5 22 12 W 1018,3 3,0 0,0
14.11.2018 06:00:00 7,6 7,5 10 6 22 12 W 1017,8 3,0 0,0
14.11.2018 05:00:00 7,8 7,7 12 6 24 13 WSW 1017,3 3,0 0,0
14.11.2018 04:00:00 7,8 7,7 15 8 24 13 WSW 1017,0 3,3 0,0
14.11.2018 03:00:00 7,6 7,5 15 8 22 12 SW 1016,7 4,1 0,5
14.11.2018 02:00:00 7,7 7,6 13 7 20 11 SW 1016,7 6 0,1
14.11.2018 01:00:00 7,5 7,4 11 6 19 10 SW 1016,4 9 0,0
14.11.2018 00:00:00 7,6 7,5 10 5 22 12 SW 1016,4 8 0,0
13.11.2018 23:00:00 7,4 7,3 13 7 22 12 WSW 1016,3 8 0,0
13.11.2018 22:00:00 7,0 6,9 13 7 27 15 SW 1016,1 6 0,0
13.11.2018 21:00:00 6,9 6,8 10 5 31 17 SW 1016,0 6 0,0
13.11.2018 20:00:00 7,3 7,1 17 9 31 17 W 1016,0 7 0,0
13.11.2018 19:00:00 7,5 7,4 15 8 22 12 WSW 1016,1 12 0,0
13.11.2018 18:00:00 7,1 6,9 12 6 20 11 WSW 1016,1 7 0,0
13.11.2018 17:00:00 7,2 7,1 12 6 22 12 WSW 1016,0 6 0,0
13.11.2018 16:00:00 7,4 7,3 13 7 22 12 WSW 1015,8 9 0,0
13.11.2018 15:00:00 7,7 7,6 10 5 21 11 W 1015,4 7 0,0
13.11.2018 14:00:00 7,7 7,6 12 7 22 12 W 1015,3 6 0,0
13.11.2018 13:00:00 8,0 7,9 8 4 22 12 W 1015,3 4,3 0,0
13.11.2018 12:00:00 8,1 8,0 7 4 17 9 W 1015,3 7 0,0
13.11.2018 11:00:00 7,7 7,6 10 6 20 11 W 1015,3 7 0,0
13.11.2018 10:00:00 7,3 7,2 10 5 20 11 WNW 1014,6 2,8 0,0
13.11.2018 09:00:00 7,2 7,1 8 4 20 11 WNW 1013,7 1,1 0,0
13.11.2018 08:00:00 - - - - 19 11 - - - -
13.11.2018 07:00:00 7,9 7,8 8 5 19 10 NW 1012,4 7 0,0
13.11.2018 06:00:00 8,1 8,0 7 4 17 9 NNW 1011,7 4,6 0,1
13.11.2018 05:00:00 8,2 8,1 9 5 17 9 N 1011,4 1,0 0,2
13.11.2018 04:00:00 8,2 8,1 5 3 16 9 NW 1011,2 0,4 0,1
13.11.2018 03:00:00 8,3 8,2 9 5 18 10 WSW 1011,1 0,4 0,4
13.11.2018 02:00:00 8,6 8,5 10 5 20 11 SSW 1012,1 1,7 1,2
13.11.2018 01:00:00 8,5 8,4 6 4 22 12 SSE 1012,5 1,4 0,8
13.11.2018 00:00:00 8,6 8,5 10 6 24 13 S 1014,2 1,7 3,2
12.11.2018 23:00:00 8,7 8,6 12 7 30 16 S 1014,7 1,6 2,1
12.11.2018 22:00:00 8,6 8,5 13 7 30 16 S 1015,5 1,3 1,2
12.11.2018 21:00:00 8,4 8,3 14 7 31 17 S 1016,3 1,0 0,2
12.11.2018 20:00:00 7,8 7,7 16 9 31 17 SSW 1016,8 1,9 0,0
12.11.2018 19:00:00 7,5 7,4 18 10 29 16 SSW 1017,1 1,7 0,0
12.11.2018 18:00:00 7,5 7,4 14 8 32 17 SW 1017,5 2,2 0,0
12.11.2018 17:00:00 7,2 7,1 18 10 37 20 SW 1017,8 2,6 0,0
12.11.2018 16:00:00 7,4 7,3 20 11 37 20 WSW 1017,5 0,9 0,0
12.11.2018 15:00:00 8,2 8,1 16 9 30 16 WSW 1017,1 0,5 0,0
12.11.2018 14:00:00 8,6 8,5 15 8 29 16 SSW 1016,8 0,5 0,0
12.11.2018 13:00:00 - - - - 29 16 - - - -
12.11.2018 12:00:00 8,7 8,4 16 8 31 17 SSW 1017,0 1,3 0,4
12.11.2018 11:00:00 8,6 8,3 16 9 35 19 SSW 1017,0 1,7 0,1
12.11.2018 10:00:00 8,7 8,4 19 10 36 20 SSW 1016,8 1,7 0,0
12.11.2018 09:00:00 8,6 8,3 18 10 41 22 SSW 1016,7 1,2 0,1
12.11.2018 08:00:00 8,5 8,2 18 10 45 25 SSW 1016,5 1,0 0,3
12.11.2018 07:00:00 8,5 8,2 21 12 45 25 S 1016,1 1,0 0,1
12.11.2018 06:00:00 8,4 8,1 24 13 47 25 S 1015,9 1,5 0,0
12.11.2018 05:00:00 8,1 7,8 25 14 50 27 S 1015,9 1,6 0,2
12.11.2018 04:00:00 7,8 7,5 21 12 50 27 S 1015,9 2,2 0,3
12.11.2018 03:00:00 7,7 7,4 24 13 50 27 S 1016,2 2,1 0,7
12.11.2018 02:00:00 7,6 7,3 23 13 50 27 S 1016,4 2,3 0,2
12.11.2018 01:00:00 7,5 7,2 22 12 50 27 S 1016,3 2,5 0,0
12.11.2018 00:00:00 7,2 6,9 26 14 50 27 S 1016,5 2,4 0,0
11.11.2018 23:00:00 6,8 6,5 20 11 50 27 S 1016,5 2,6 0,1
11.11.2018 22:00:00 6,7 6,3 22 12 46 25 S 1016,7 2,5 0,1
11.11.2018 21:00:00 6,9 6,2 22 12 44 24 S 1016,8 4,2 0,0
11.11.2018 20:00:00 6,8 6,2 20 11 44 24 S 1016,9 3,7 0,0
11.11.2018 19:00:00 6,7 5,6 19 11 44 24 S 1017,0 6 0,0
11.11.2018 18:00:00 6,6 5,9 21 12 44 24 S 1017,2 5 0,0
11.11.2018 17:00:00 6,5 5,8 19 11 44 24 S 1017,1 4,8 0,0
11.11.2018 16:00:00 6,7 6,0 22 12 43 23 S 1017,3 4,2 0,0
11.11.2018 15:00:00 6,9 6,5 17 9 40 22 S 1017,2 2,7 0,0
11.11.2018 14:00:00 6,9 6,6 17 9 41 22 S 1017,0 2,8 0,0
11.11.2018 13:00:00 6,8 6,5 18 10 42 23 S 1017,2 2,2 0,0
11.11.2018 12:00:00 7,3 6,9 19 10 42 23 S 1017,1 2,0 0,0
11.11.2018 11:00:00 7,9 7,1 17 9 39 21 S 1017,3 3,5 0,0
11.11.2018 10:00:00 8,2 7,4 19 10 39 21 SSE 1017,4 3,1 0,0
11.11.2018 09:00:00 8,3 7,9 16 9 31 17 S 1017,1 2,7 0,0
11.11.2018 08:00:00 8,4 8,3 14 7 30 16 S 1017,1 1,5 0,0
11.11.2018 07:00:00 8,3 8,2 16 9 30 16 S 1017,0 1,2 0,1
11.11.2018 06:00:00 8,4 8,3 16 9 30 16 S 1017,0 1,4 0,0
11.11.2018 05:00:00 - - - - 24 13 - - - -
11.11.2018 04:00:00 8,2 7,9 10 6 23 12 SE 1016,8 2,6 0,0
11.11.2018 03:00:00 8,2 7,9 8 5 23 12 SSE 1017,1 2,1 0,0
11.11.2018 02:00:00 8,4 8,0 9 5 29 16 SE 1017,1 2,6 0,0
11.11.2018 01:00:00 8,4 7,8 17 9 29 16 SE 1017,4 4,3 0,0
11.11.2018 00:00:00 8,4 8,0 13 7 31 17 SE 1017,2 4,5 0,0
10.11.2018 23:00:00 8,4 8,0 13 7 31 17 SE 1017,1 4,7 0,0
10.11.2018 22:00:00 8,3 7,9 10 6 27 15 SE 1017,2 4,6 0,0
10.11.2018 21:00:00 8,2 7,8 12 6 24 13 SE 1017,2 4,1 0,0
10.11.2018 20:00:00 8,2 7,8 11 6 23 12 SSE 1017,3 5 0,0
10.11.2018 19:00:00 7,7 7,3 10 6 27 15 SE 1017,0 4,0 0,0
10.11.2018 18:00:00 7,3 6,9 12 6 27 15 SE 1016,6 4,9 0,0
10.11.2018 17:00:00 7,0 6,6 11 6 26 14 SE 1016,5 5 0,0
10.11.2018 16:00:00 6,8 6,5 11 6 22 12 SE 1016,6 4,3 0,0
10.11.2018 15:00:00 6,6 6,3 10 5 24 13 SE 1016,6 4,2 0,2
10.11.2018 14:00:00 6,6 6,3 7 4 24 13 SE 1016,8 3,6 0,0
10.11.2018 13:00:00 6,6 6,3 10 5 23 12 SE 1016,7 3,1 0,0
10.11.2018 12:00:00 6,7 6,4 10 6 24 13 SE 1016,8 2,9 0,0
10.11.2018 11:00:00 6,7 6,4 11 6 24 13 SSE 1016,8 1,7 0,0
10.11.2018 10:00:00 7,0 6,7 10 5 23 12 SE 1016,8 2,1 0,0
10.11.2018 09:00:00 7,0 6,7 10 6 19 10 SE 1016,7 3,0 0,0
10.11.2018 08:00:00 7,1 6,8 9 5 15 8 SSE 1016,8 3,8 0,1
10.11.2018 07:00:00 7,4 7,1 7 4 15 8 SSE 1016,5 6 0,0
10.11.2018 06:00:00 7,5 7,2 5 3 14 8 SE 1016,3 3,6 0,1
10.11.2018 05:00:00 7,5 7,2 6 3 16 8 SSE 1016,8 3,7 0,1
10.11.2018 04:00:00 7,4 7,3 6 4 18 10 SE 1016,9 1,9 0,3
10.11.2018 03:00:00 7,4 7,3 8 4 20 11 SE 1016,9 2,0 0,0
10.11.2018 02:00:00 7,4 7,3 9 5 20 11 ESE 1017,4 2,3 0,1
10.11.2018 01:00:00 7,5 7,4 8 4 18 10 SE 1017,8 1,6 0,2
10.11.2018 00:00:00 7,3 7,0 7 4 18 10 ESE 1018,1 2,5 0,0
09.11.2018 23:00:00 7,5 7,2 8 4 17 9 SE 1018,5 3,5 0,1
09.11.2018 22:00:00 7,5 7,2 7 4 20 11 ESE 1018,8 3,5 0,0

tt = Température de l'air
td = dewpoint
ff = Vitesse du vent
fx = gusts
dd = Direction du vent
ppp = reduced air pressure
vv = visibility
rr = Quantités de précipitations

stations d'obs. à proximité